QPF
0.00 0.00 0.00 0.00 0.00 0.00 0.00 0.00 0.00 0.00 0.00 0.00 0.00 0.00 0.00 0.00 0.00 0.00 0.00 0.00 0.00 0.00 0.01 0.08 0.49 0.99 0.52 0.26 0.13 0.09 0.05 0.04 0.03 0.04 0.02 0.00 0.00 0.00 0.00 0.00 0.00 0.00 0.00
0.00 0.00 0.00 0.00 0.00 0.00 0.00 0.00 0.00 0.00 0.00 0.00 0.00 0.00 0.00 0.00 0.00 0.00 0.00 0.00 0.00 0.00 0.00 0.00 0.02 0.27 0.85 0.75 0.46 0.23 0.15 0.10 0.08 0.06 0.03 0.02 0.00 0.00 0.00 0.00 0.00 0.00 0.00
0.00 0.00 0.00 0.00 0.00 0.00 0.00 0.00 0.00 0.00 0.00 0.00 0.00 0.00 0.00 0.00 0.00 0.00 0.00 0.00 0.00 0.00 0.00 0.00 0.00 0.00 0.06 0.25 0.33 0.25 0.18 0.29 0.16 0.12 0.09 0.04 0.03 0.03 0.00 0.00 0.00 0.00 0.00
0.00 0.00 0.00 0.00 0.00 0.00 0.00 0.00 0.00 0.00 0.00 0.00 0.00 0.00 0.00 0.00 0.00 0.00 0.00 0.00 0.00 0.00 0.00 0.00 0.00 0.00 0.00 0.00 0.05 0.13 0.16 0.23 0.33 0.15 0.12 0.08 0.05 0.04 0.03 0.00 0.00 0.00 0.00
0.00 0.00 0.00 0.00 0.00 0.00 0.00 0.00 0.00 0.00 0.00 0.00 0.00 0.00 0.00 0.00 0.00 0.00 0.00 0.00 0.00 0.00 0.00 0.00 0.00 0.00 0.00 0.00 0.00 0.01 0.04 0.10 0.16 0.17 0.17 0.11 0.07 0.06 0.05 0.02 0.00 0.00 0.00
0.00 0.00 0.00 0.00 0.00 0.00 0.00 0.00 0.00 0.00 0.00 0.00 0.00 0.00 0.00 0.00 0.00 0.00 0.00 0.00 0.00 0.00 0.00 0.00 0.00 0.00 0.00 0.00 0.00 0.00 0.00 0.00 0.04 0.11 0.16 0.16 0.12 0.12 0.09 0.03 0.03 0.01 0.00
0.00 0.00 0.00 0.00 0.00 0.00 0.00 0.00 0.00 0.00 0.00 0.00 0.00 0.00 0.00 0.00 0.00 0.00 0.00 0.00 0.00 0.00 0.00 0.00 0.00 0.00 0.00 0.00 0.00 0.00 0.00 0.00 0.00 0.01 0.06 0.16 0.20 0.16 0.16 0.13 0.08 0.05 0.02
0.00 0.00 0.00 0.00 0.00 0.00 0.00 0.00 0.00 0.00 0.00 0.00 0.00 0.00 0.00 0.00 0.00 0.00 0.00 0.00 0.00 0.00 0.00 0.00 0.00 0.00 0.00 0.00 0.00 0.00 0.00 0.00 0.00 0.00 0.01 0.03 0.12 0.27 0.31 0.20 0.17 0.13 0.08
0.00 0.00 0.00 0.00 0.00 0.00 0.00 0.00 0.00 0.00 0.00 0.00 0.00 0.00 0.00 0.00 0.00 0.00 0.00 0.00 0.00 0.00 0.00 0.00 0.00 0.00 0.00 0.00 0.00 0.00 0.00 0.00 0.00 0.00 0.00 0.00 0.01 0.07 0.38 0.71 0.59 0.34 0.17
0.00 0.00 0.00 0.00 0.00 0.00 0.00 0.00 0.00 0.00 0.00 0.00 0.00 0.00 0.00 0.00 0.00 0.00 0.00 0.00 0.00 0.00 0.00 0.00 0.00 0.00 0.00 0.00 0.00 0.00 0.00 0.00 0.00 0.00 0.00 0.00 0.00 0.01 0.06 0.27 0.85 0.50 0.37
0.01 0.00 0.00 0.00 0.00 0.00 0.00 0.00 0.00 0.00 0.00 0.00 0.00 0.00 0.00 0.00 0.00 0.00 0.00 0.00 0.00 0.00 0.00 0.00 0.00 0.00 0.00 0.00 0.00 0.00 0.00 0.00 0.00 0.00 0.00 0.00 0.00 0.00 0.01 0.05 0.17 0.27 0.21
0.00 0.00 0.00 0.01 0.00 0.00 0.00 0.00 0.00 0.00 0.00 0.00 0.00 0.00 0.00 0.00 0.00 0.00 0.00 0.00 0.00 0.00 0.00 0.00 0.00 0.00 0.00 0.00 0.00 0.00 0.00 0.00 0.00 0.00 0.00 0.00 0.00 0.00 0.00 0.01 0.04 0.17 0.39
0.02 0.01 0.02 0.02 0.01 0.01 0.00 0.00 0.00 0.00 0.00 0.00 0.00 0.00 0.00 0.00 0.00 0.00 0.00 0.00 0.00 0.00 0.00 0.00 0.00 0.00 0.00 0.00 0.00 0.00 0.00 0.00 0.00 0.00 0.00 0.00 0.00 0.00 0.00 0.00 0.01 0.03 0.08
0.03 0.03 0.05 0.04 0.03 0.06 0.08 0.02 0.00 0.00 0.00 0.00 0.00 0.00 0.00 0.00 0.00 0.00 0.00 0.00 0.00 0.00 0.00 0.00 0.00 0.00 0.00 0.00 0.00 0.00 0.00 0.00 0.00 0.00 0.00 0.00 0.00 0.00 0.00 0.00 0.00 0.00 0.02
0.01 0.03 0.05 0.03 0.03 0.03 0.06 0.06 0.02 0.00 0.00 0.00 0.00 0.00 0.00 0.00 0.00 0.00 0.00 0.00 0.00 0.00 0.00 0.00 0.00 0.00 0.00 0.00 0.00 0.00 0.00 0.00 0.00 0.00 0.00 0.00 0.00 0.00 0.00 0.00 0.00 0.00 0.01
0.00 0.01 0.02 0.02 0.02 0.03 0.03 0.04 0.04 0.01 0.00 0.00 0.00 0.00 0.00 0.00 0.00 0.00 0.00 0.00 0.00 0.00 0.00 0.00 0.00 0.00 0.00 0.00 0.00 0.00 0.00 0.00 0.00 0.00 0.00 0.00 0.00 0.00 0.00 0.00 0.00 0.00 0.01
0.00 0.00 0.01 0.02 0.02 0.01 0.01 0.03 0.04 0.03 0.02 0.00 0.00 0.00 0.00 0.00 0.00 0.00 0.00 0.00 0.00 0.00 0.00 0.00 0.00 0.00 0.00 0.00 0.00 0.00 0.00 0.00 0.00 0.00 0.00 0.00 0.00 0.00 0.00 0.00 0.00 0.00 0.01
0.00 0.00 0.00 0.01 0.00 0.00 0.01 0.01 0.01 0.02 0.02 0.01 0.00 0.01 0.00 0.00 0.00 0.00 0.00 0.00 0.00 0.00 0.00 0.00 0.00 0.00 0.00 0.00 0.00 0.00 0.00 0.00 0.00 0.00 0.00 0.00 0.00 0.00 0.00 0.00 0.00 0.00 0.01
0.01 0.00 0.00 0.00 0.00 0.00 0.00 0.00 0.00 0.00 0.01 0.00 0.00 0.01 0.00 0.00 0.00 0.00 0.00 0.00 0.00 0.00 0.00 0.00 0.00 0.00 0.00 0.00 0.00 0.00 0.00 0.00 0.00 0.00 0.00 0.00 0.00 0.00 0.00 0.00 0.01 0.02 0.02
0.01 0.00 0.00 0.00 0.00 0.00 0.00 0.00 0.01 0.00 0.00 0.00 0.00 0.00 0.00 0.00 0.00 0.00 0.00 0.00 0.00 0.00 0.00 0.00 0.00 0.00 0.00 0.00 0.00 0.00 0.00 0.00 0.00 0.01 0.02 0.05 0.02 0.02 0.01 0.01 0.02 0.03 0.06
0.02 0.01 0.01 0.01 0.02 0.01 0.00 0.00 0.00 0.00 0.00 0.00 0.00 0.00 0.00 0.00 0.00 0.00 0.00 0.00 0.00 0.00 0.00 0.00 0.00 0.00 0.00 0.00 0.00 0.00 0.00 0.00 0.05 0.04 0.03 0.05 0.03 0.01 0.04 0.03 0.03 0.06 0.07
0.01 0.02 0.02 0.05 0.07 0.07 0.02 0.01 0.02 0.03 0.05 0.01 0.00 0.00 0.00 0.00 0.02 0.04 0.05 0.04 0.02 0.01 0.00 0.00 0.00 0.00 0.00 0.00 0.00 0.00 0.00 0.01 0.08 0.11 0.11 0.07 0.06 0.02 0.02 0.04 0.09 0.06 0.07
0.00 0.01 0.02 0.04 0.06 0.08 0.10 0.05 0.02 0.03 0.09 0.11 0.04 0.00 0.00 0.01 0.01 0.00 0.02 0.03 0.01 0.01 0.01 0.00 0.00 0.00 0.00 0.00 0.00 0.01 0.02 0.07 0.11 0.16 0.20 0.21 0.15 0.08 0.07 0.16 0.16 0.09 0.06
0.00 0.00 0.01 0.01 0.02 0.07 0.16 0.17 0.11 0.16 0.16 0.10 0.06 0.04 0.03 0.03 0.02 0.00 0.00 0.00 0.00 0.00 0.00 0.00 0.00 0.00 0.00 0.06 0.08 0.08 0.06 0.13 0.15 0.17 0.17 0.30 0.28 0.20 0.17 0.17 0.14 0.10 0.06
0.00 0.00 0.00 0.01 0.01 0.03 0.07 0.17 0.16 0.11 0.16 0.08 0.03 0.06 0.08 0.07 0.13 0.10 0.06 0.04 0.03 0.02 0.02 0.03 0.02 0.02 0.04 0.07 0.11 0.09 0.11 0.14 0.16 0.17 0.15 0.21 0.32 0.28 0.20 0.22 0.15 0.12 0.11
0.00 0.00 0.00 0.00 0.01 0.01 0.02 0.04 0.06 0.04 0.06 0.05 0.03 0.04 0.05 0.06 0.07 0.05 0.06 0.07 0.08 0.08 0.02 0.05 0.11 0.14 0.13 0.12 0.14 0.08 0.05 0.04 0.08 0.10 0.13 0.14 0.20 0.26 0.25 0.16 0.13 0.14 0.15
MSLP
1016.53 1016.31 1015.82 1015.51 1015.31 1014.93 1014.62 1014.20 1013.96 1013.76 1013.76 1013.55 1013.29 1013.41 1013.41 1013.35 1013.08 1013.16 1013.08 1012.86 1012.40 1012.00 1011.75 1011.49 1011.40 1011.28 1011.19 1011.25 1011.52 1011.84 1012.16 1012.57 1012.86 1013.15 1013.48 1013.89 1014.36 1014.89 1015.17 1015.50 1015.81 1016.17 1016.61
1015.88 1015.59 1015.36 1015.15 1014.84 1014.60 1014.28 1014.01 1013.89 1013.41 1013.40 1013.40 1013.28 1013.04 1013.20 1013.22 1013.14 1012.98 1013.00 1012.97 1012.53 1012.22 1012.02 1011.73 1011.50 1011.30 1010.34 1010.44 1010.76 1011.52 1011.76 1012.06 1012.36 1012.65 1013.01 1013.31 1013.71 1014.29 1014.79 1015.14 1015.41 1015.69 1016.18
1015.19 1015.03 1014.95 1014.65 1014.37 1014.07 1013.86 1013.71 1013.41 1013.06 1012.91 1013.03 1013.02 1012.85 1012.83 1012.87 1013.04 1012.88 1012.82 1012.71 1012.68 1012.52 1012.28 1012.09 1011.69 1011.48 1011.47 1010.70 1010.48 1010.44 1011.18 1011.49 1011.65 1011.86 1012.44 1012.88 1013.25 1013.62 1014.10 1014.56 1014.88 1015.22 1015.68
1014.73 1014.40 1014.06 1013.88 1013.69 1013.67 1013.47 1013.24 1013.11 1013.08 1012.59 1012.63 1012.70 1012.64 1012.49 1012.52 1012.67 1012.75 1012.73 1012.63 1012.64 1012.56 1012.39 1012.18 1011.82 1011.52 1011.43 1011.33 1010.96 1011.27 1011.41 1011.07 1009.56 1010.75 1011.71 1012.27 1012.73 1013.04 1013.46 1013.88 1014.19 1014.59 1014.94
1014.36 1014.03 1013.61 1013.17 1012.92 1012.77 1012.81 1012.84 1012.76 1012.91 1012.57 1012.22 1012.37 1012.28 1012.27 1012.23 1012.37 1012.36 1012.51 1012.45 1012.27 1012.36 1012.33 1012.09 1011.87 1011.71 1011.56 1011.35 1011.08 1011.01 1011.11 1011.24 1010.80 1010.80 1011.22 1011.65 1011.96 1012.32 1012.74 1013.18 1013.48 1013.82 1014.19
1013.95 1013.30 1012.75 1012.43 1012.31 1012.28 1012.14 1012.25 1012.38 1012.19 1012.58 1011.73 1011.74 1011.74 1011.91 1011.91 1012.09 1012.19 1012.21 1012.15 1012.17 1012.07 1012.03 1012.01 1011.99 1011.88 1011.59 1011.21 1011.06 1010.95 1010.86 1010.73 1010.90 1010.93 1010.72 1011.02 1011.30 1011.61 1011.92 1012.33 1012.70 1013.08 1013.52
1013.64 1013.13 1012.42 1011.90 1011.75 1011.67 1011.47 1011.48 1011.59 1011.87 1011.86 1011.59 1011.65 1011.64 1011.80 1011.69 1011.86 1011.97 1011.89 1011.91 1011.93 1011.81 1011.75 1011.86 1011.79 1011.84 1011.70 1011.32 1011.08 1010.99 1010.93 1010.76 1010.34 1010.29 1010.31 1010.63 1010.49 1010.75 1011.04 1011.45 1011.84 1012.39 1012.83
1012.72 1012.35 1011.89 1011.48 1011.07 1010.87 1010.84 1010.87 1010.92 1011.09 1011.06 1011.05 1011.39 1011.60 1011.87 1011.95 1011.64 1011.65 1011.52 1011.39 1011.61 1011.73 1011.60 1011.38 1011.37 1011.43 1011.40 1011.41 1011.10 1010.72 1010.73 1010.73 1010.67 1010.76 1010.52 1010.12 1009.86 1009.85 1009.90 1010.30 1011.06 1011.52 1012.15
1011.79 1011.35 1011.09 1010.88 1010.49 1010.17 1010.00 1010.06 1010.14 1010.23 1010.56 1010.56 1010.79 1010.94 1011.60 1011.56 1011.86 1011.40 1011.37 1011.11 1011.31 1011.59 1011.46 1011.29 1011.18 1011.04 1011.02 1011.07 1011.03 1010.95 1010.75 1010.57 1010.60 1010.51 1010.47 1010.21 1009.82 1009.23 1009.25 1009.68 1009.92 1010.39 1011.35
1010.97 1010.51 1010.10 1009.89 1009.70 1009.31 1009.25 1009.20 1009.30 1009.44 1009.76 1010.25 1010.55 1010.51 1010.31 1010.51 1011.47 1011.51 1011.32 1011.07 1011.14 1011.37 1011.17 1011.07 1010.99 1010.86 1010.83 1010.68 1010.78 1011.00 1010.86 1010.69 1010.56 1010.41 1010.26 1010.02 1009.84 1009.69 1009.47 1009.28 1008.89 1009.63 1010.60
1010.07 1009.63 1009.31 1008.95 1008.87 1008.63 1008.39 1008.33 1008.50 1008.80 1008.98 1009.44 1009.90 1010.18 1010.25 1010.41 1010.67 1010.95 1011.39 1011.20 1011.10 1011.05 1010.84 1010.94 1010.81 1010.82 1010.61 1010.48 1010.65 1010.84 1010.76 1010.64 1010.64 1010.52 1010.34 1010.07 1009.71 1009.97 1009.76 1009.52 1009.17 1008.78 1009.45
1008.96 1008.56 1008.25 1008.01 1007.88 1007.82 1007.67 1007.76 1007.88 1008.08 1008.38 1008.59 1008.81 1009.20 1009.70 1010.20 1010.46 1010.78 1011.05 1010.88 1011.09 1010.90 1010.62 1010.50 1010.51 1010.59 1010.46 1010.28 1010.38 1010.50 1010.47 1010.49 1010.42 1010.16 1010.07 1010.00 1009.69 1009.41 1009.50 1009.44 1008.98 1008.78 1009.05
1008.27 1007.53 1007.16 1007.06 1006.96 1007.02 1007.13 1007.11 1007.32 1007.38 1007.75 1008.08 1008.31 1008.64 1008.98 1009.18 1009.44 1009.71 1010.18 1010.42 1010.71 1010.65 1010.45 1010.25 1010.07 1010.14 1010.12 1010.19 1010.25 1010.20 1010.26 1010.37 1010.35 1010.21 1010.04 1009.81 1009.68 1009.36 1009.15 1008.91 1008.79 1008.39 1008.70
1007.60 1006.50 1005.72 1006.12 1006.48 1006.51 1006.51 1006.49 1006.80 1006.99 1007.16 1007.43 1007.68 1008.00 1008.27 1008.43 1008.76 1009.00 1009.29 1009.89 1010.39 1010.57 1010.51 1010.16 1009.82 1009.67 1009.65 1009.75 1009.75 1009.87 1010.24 1010.26 1010.18 1009.99 1009.79 1009.65 1009.37 1009.10 1008.76 1008.47 1008.16 1007.74 1007.77
1007.25 1005.79 1005.02 1005.92 1006.17 1006.14 1006.33 1006.37 1006.29 1006.48 1006.62 1006.96 1007.22 1007.57 1007.97 1008.01 1008.11 1008.29 1008.72 1008.73 1009.62 1010.28 1010.31 1009.82 1009.86 1009.35 1009.31 1009.37 1009.44 1009.66 1009.94 1009.89 1009.58 1009.47 1009.26 1009.10 1008.79 1008.36 1008.14 1007.80 1007.56 1007.07 1006.71
1007.07 1006.54 1006.13 1006.03 1005.93 1005.86 1005.84 1006.17 1006.27 1006.21 1006.31 1006.59 1006.82 1007.21 1007.51 1007.69 1007.88 1008.07 1008.47 1008.73 1008.86 1009.14 1009.68 1009.55 1009.25 1009.16 1009.05 1009.13 1009.22 1009.33 1009.39 1009.23 1008.97 1008.77 1008.49 1008.42 1007.99 1007.73 1007.21 1006.98 1006.80 1006.51 1006.33
1007.27 1006.81 1006.47 1006.18 1005.93 1005.84 1005.78 1005.79 1005.82 1006.09 1006.20 1006.35 1006.60 1006.83 1007.01 1007.27 1007.75 1007.98 1008.14 1008.39 1008.66 1009.05 1009.27 1009.28 1009.06 1008.91 1009.06 1008.93 1008.86 1008.95 1009.02 1008.97 1008.69 1008.43 1007.96 1007.47 1007.02 1006.76 1006.35 1006.14 1006.02 1005.74 1005.60
1007.44 1007.05 1006.69 1006.37 1006.11 1005.96 1005.86 1005.73 1005.70 1005.70 1005.89 1006.13 1006.30 1006.58 1006.72 1006.64 1007.13 1007.39 1007.79 1008.10 1008.24 1008.40 1008.89 1009.18 1009.12 1009.16 1009.06 1008.88 1008.85 1008.75 1008.79 1008.74 1008.56 1008.12 1007.28 1006.40 1005.76 1005.09 1004.72 1004.65 1004.71 1004.44 1004.47
1008.15 1007.22 1006.80 1006.48 1006.16 1005.88 1005.70 1005.61 1005.51 1005.53 1005.58 1005.74 1005.87 1006.06 1006.23 1006.49 1006.73 1006.86 1007.20 1007.42 1007.78 1008.02 1008.25 1008.69 1008.87 1008.92 1009.05 1008.96 1009.03 1008.85 1008.79 1008.49 1008.26 1007.87 1006.98 1005.53 1003.83 1002.66 1002.44 1003.01 1003.30 1003.51 1003.66
1008.85 1007.74 1007.08 1006.64 1006.20 1005.79 1005.57 1005.36 1005.32 1005.30 1005.50 1005.47 1005.47 1005.66 1005.81 1005.98 1006.22 1006.37 1006.61 1006.82 1007.13 1007.47 1007.56 1008.22 1008.32 1008.65 1009.00 1009.01 1009.14 1009.10 1009.19 1008.89 1008.41 1007.71 1007.02 1005.52 1003.57 1001.21 1001.14 1001.55 1001.80 1001.92 1002.51
1009.82 1008.88 1007.98 1007.13 1006.17 1005.52 1004.86 1004.83 1004.82 1004.92 1005.12 1005.23 1005.36 1005.38 1005.48 1005.66 1005.64 1005.75 1005.94 1006.21 1006.48 1006.76 1007.24 1007.68 1008.00 1008.34 1008.62 1008.85 1009.00 1008.93 1009.24 1009.21 1008.69 1008.46 1007.64 1005.94 1004.73 1003.33 1002.20 1001.67 1001.47 1001.70 1002.12
1010.79 1009.64 1008.60 1007.63 1006.75 1005.27 1003.41 1003.92 1003.82 1004.24 1004.81 1005.09 1005.20 1005.26 1005.43 1005.29 1005.11 1004.77 1004.72 1005.05 1005.57 1005.90 1006.37 1006.71 1007.03 1007.48 1007.84 1008.13 1008.54 1008.69 1009.02 1009.16 1009.18 1008.56 1008.39 1006.88 1006.35 1004.77 1004.05 1003.28 1003.37 1003.27 1003.43
1011.84 1010.63 1009.42 1008.31 1007.22 1006.26 1005.03 1003.48 1003.24 1003.69 1004.32 1004.92 1005.12 1005.23 1005.28 1005.06 1004.80 1004.92 1004.84 1005.20 1005.33 1005.52 1005.57 1005.94 1006.41 1006.82 1007.14 1007.07 1007.57 1008.24 1008.64 1008.92 1009.18 1009.08 1008.57 1008.19 1007.96 1006.62 1005.31 1004.78 1005.79 1004.80 1005.03
1012.75 1011.77 1010.76 1009.59 1008.46 1007.36 1006.56 1005.68 1005.07 1004.79 1005.10 1005.61 1005.42 1005.43 1005.39 1004.92 1004.87 1005.30 1005.64 1005.95 1006.13 1006.17 1006.11 1006.02 1006.01 1005.72 1005.87 1006.24 1006.75 1007.08 1008.06 1008.77 1009.14 1009.19 1008.86 1009.21 1008.76 1007.96 1007.21 1006.52 1007.37 1006.38 1006.75
1013.68 1012.83 1011.92 1010.99 1009.92 1008.79 1008.12 1007.36 1006.83 1006.74 1006.62 1006.70 1006.69 1006.57 1006.35 1005.99 1005.79 1005.96 1006.19 1006.46 1006.72 1006.82 1006.32 1006.04 1005.95 1005.87 1006.08 1006.50 1006.97 1007.39 1008.30 1008.75 1009.35 1009.65 1009.56 1009.50 1009.60 1009.27 1008.55 1008.87 1008.90 1007.94 1008.03
1014.67 1013.81 1013.06 1012.33 1011.45 1010.48 1009.51 1009.03 1008.76 1008.40 1007.88 1007.72 1007.61 1007.25 1007.03 1006.97 1006.93 1007.01 1007.15 1007.25 1007.41 1007.82 1007.56 1007.45 1007.22 1007.28 1007.32 1007.50 1007.74 1008.16 1008.46 1008.85 1009.20 1009.62 1009.88 1009.82 1009.93 1009.77 1010.14 1010.48 1010.27 1009.91 1009.73
Thickness
5481 5479 5485 5489 5495 5502 5511 5520 5530 5539 5548 5556 5566 5571 5579 5587 5597 5603 5610 5617 5628 5637 5646 5654 5661 5668 5671 5675 5676 5676 5678 5679 5681 5683 5685 5685 5686 5684 5686 5687 5688 5688 5686
5467 5467 5469 5470 5473 5475 5483 5494 5504 5515 5525 5534 5543 5553 5560 5567 5576 5586 5593 5601 5612 5622 5630 5639 5647 5658 5657 5669 5662 5665 5669 5673 5676 5678 5679 5681 5682 5681 5680 5682 5684 5686 5684
5458 5454 5453 5455 5457 5457 5461 5468 5479 5490 5501 5511 5521 5530 5539 5548 5556 5567 5576 5585 5594 5604 5612 5622 5632 5638 5632 5643 5653 5656 5660 5668 5675 5675 5674 5675 5676 5678 5678 5678 5680 5681 5681
5449 5448 5447 5445 5445 5445 5445 5449 5455 5461 5477 5487 5498 5507 5519 5529 5536 5545 5555 5567 5577 5587 5595 5604 5615 5622 5624 5627 5635 5643 5646 5661 5668 5670 5669 5670 5671 5674 5675 5675 5678 5678 5679
5436 5436 5436 5436 5433 5435 5436 5435 5437 5438 5448 5463 5474 5484 5494 5506 5515 5526 5536 5547 5561 5570 5578 5587 5596 5605 5611 5615 5626 5630 5637 5645 5655 5659 5662 5665 5668 5670 5672 5673 5675 5677 5678
5428 5427 5428 5427 5424 5420 5423 5421 5421 5423 5424 5439 5451 5463 5471 5482 5493 5504 5517 5530 5540 5551 5561 5570 5577 5587 5596 5603 5611 5619 5625 5636 5642 5646 5655 5658 5662 5666 5670 5671 5673 5675 5675
5421 5417 5416 5415 5413 5411 5412 5410 5409 5409 5411 5419 5422 5435 5447 5458 5470 5483 5498 5510 5522 5532 5540 5549 5560 5570 5579 5589 5596 5603 5612 5621 5632 5641 5644 5650 5658 5663 5667 5669 5671 5671 5671
5419 5412 5406 5403 5402 5400 5400 5400 5400 5400 5402 5406 5409 5412 5420 5433 5451 5465 5477 5491 5501 5509 5522 5533 5543 5553 5562 5571 5582 5590 5600 5609 5616 5620 5630 5641 5651 5662 5672 5671 5667 5668 5666
5415 5410 5402 5395 5392 5390 5392 5392 5392 5393 5393 5397 5398 5404 5399 5415 5423 5438 5452 5467 5476 5487 5501 5513 5524 5535 5545 5555 5565 5575 5583 5596 5605 5612 5619 5628 5642 5654 5660 5662 5669 5666 5663
5413 5405 5399 5391 5385 5383 5383 5385 5387 5387 5387 5387 5387 5395 5401 5410 5406 5412 5426 5441 5451 5465 5478 5492 5505 5515 5525 5537 5547 5557 5569 5578 5591 5601 5609 5620 5628 5638 5645 5649 5659 5656 5657
5412 5405 5396 5389 5381 5378 5379 5379 5380 5380 5381 5381 5380 5382 5387 5392 5397 5401 5406 5417 5427 5442 5456 5468 5483 5495 5505 5518 5529 5538 5549 5562 5571 5582 5593 5606 5619 5623 5629 5634 5642 5652 5655
5415 5407 5397 5388 5381 5375 5373 5372 5372 5372 5374 5377 5381 5380 5382 5381 5385 5386 5389 5396 5403 5417 5432 5447 5463 5476 5486 5499 5508 5517 5530 5544 5557 5569 5578 5590 5605 5617 5622 5626 5637 5646 5649
5416 5411 5400 5389 5381 5372 5367 5367 5367 5368 5367 5368 5370 5375 5377 5379 5379 5382 5383 5390 5388 5397 5409 5426 5444 5456 5466 5478 5487 5499 5512 5524 5538 5551 5563 5574 5588 5603 5612 5621 5629 5641 5638
5415 5414 5407 5392 5378 5369 5364 5364 5363 5363 5363 5363 5365 5368 5372 5374 5374 5376 5378 5376 5375 5378 5387 5410 5423 5434 5445 5457 5470 5479 5492 5502 5517 5533 5547 5558 5572 5587 5601 5613 5624 5635 5639
5415 5416 5410 5391 5378 5368 5361 5359 5361 5360 5360 5359 5359 5360 5361 5365 5368 5370 5371 5376 5373 5367 5375 5391 5399 5412 5423 5435 5448 5460 5472 5486 5503 5516 5533 5546 5560 5575 5590 5603 5613 5627 5636
5414 5408 5400 5391 5381 5371 5365 5359 5356 5356 5356 5355 5354 5354 5355 5357 5359 5360 5360 5363 5367 5369 5373 5378 5386 5392 5402 5415 5428 5442 5457 5470 5487 5502 5519 5533 5550 5565 5581 5594 5604 5617 5626
5409 5404 5397 5390 5382 5374 5366 5361 5357 5353 5351 5350 5349 5349 5350 5350 5348 5350 5352 5354 5355 5357 5365 5367 5373 5379 5387 5397 5408 5423 5436 5452 5467 5486 5504 5522 5540 5555 5571 5585 5595 5607 5618
5407 5401 5394 5389 5382 5375 5367 5362 5358 5355 5350 5347 5345 5343 5342 5345 5344 5344 5345 5347 5349 5352 5355 5358 5360 5364 5373 5378 5387 5403 5416 5431 5452 5471 5489 5512 5532 5549 5566 5580 5591 5604 5613
5400 5399 5392 5387 5382 5376 5370 5363 5358 5353 5350 5347 5344 5338 5337 5335 5337 5341 5341 5343 5344 5349 5350 5353 5356 5358 5362 5367 5376 5385 5400 5419 5436 5450 5471 5497 5523 5547 5566 5577 5585 5594 5604
5394 5394 5389 5384 5380 5376 5371 5365 5359 5353 5347 5346 5342 5337 5336 5336 5337 5337 5339 5341 5343 5344 5350 5351 5356 5356 5356 5361 5367 5373 5377 5390 5408 5427 5447 5474 5503 5542 5557 5570 5585 5594 5595
5387 5383 5379 5377 5378 5378 5378 5371 5365 5359 5351 5346 5342 5340 5339 5338 5340 5340 5341 5342 5344 5347 5348 5348 5350 5351 5354 5357 5357 5359 5363 5372 5385 5397 5416 5447 5479 5515 5531 5551 5567 5574 5580
5379 5376 5374 5372 5371 5378 5391 5382 5378 5369 5358 5350 5346 5344 5341 5343 5345 5350 5354 5354 5353 5350 5350 5353 5356 5357 5354 5355 5355 5359 5360 5364 5369 5383 5394 5422 5442 5472 5492 5514 5523 5540 5551
5370 5367 5366 5365 5365 5367 5374 5387 5386 5378 5368 5359 5354 5349 5346 5349 5351 5350 5353 5352 5354 5355 5358 5357 5359 5357 5359 5362 5360 5357 5355 5356 5356 5364 5376 5390 5405 5436 5457 5475 5483 5505 5518
5363 5356 5350 5351 5353 5356 5359 5367 5372 5372 5366 5360 5358 5356 5354 5357 5355 5349 5347 5348 5348 5350 5351 5355 5358 5363 5364 5363 5361 5360 5353 5350 5351 5355 5362 5370 5379 5398 5419 5441 5448 5474 5486
5355 5347 5341 5340 5342 5345 5347 5353 5357 5357 5357 5355 5353 5352 5352 5353 5353 5350 5347 5345 5345 5345 5352 5356 5359 5362 5361 5360 5358 5356 5351 5351 5350 5350 5352 5358 5363 5376 5391 5399 5415 5441 5455
5350 5342 5337 5334 5334 5336 5340 5342 5343 5345 5348 5349 5348 5349 5349 5347 5347 5345 5343 5342 5342 5339 5342 5345 5348 5349 5351 5351 5350 5348 5348 5348 5350 5348 5347 5354 5356 5361 5369 5374 5394 5409 5424